SES-15 (WAAS/PRN 133)

Last updated on Thu Jul 03 2025 00:03:25 GMT+0000 (Coordinated Universal Time)

1 42709U 17026A 25183.40019833 .00000067 00000+0 00000+0 0 9996 2 42709 0.0184 20.2709 0000440 36.3873 238.8989 1.00269764 3932
UTC large
Height (km)
Speed (km/s)
/
Latitude / Longitude
Inclination (degrees)
Orbital Period (minutes)
Azimuth
Elevation
Range (km)
Doppler Factor

Next 0 passes for location: London (51.5072 / 0.1276)

Sorry there are no passes over London.